Location: Burbank
(38.7788°N, 114.0429°W)
Time: 23:09:13
(UTC+00:00)

Transit 2A - Pass Details

Date: 14 May 2026
Orbit: 595 x 949 km, 66.7° (Epoch: 5 June)

Event Time Altitude Azimuth Distance (km) Brightness Sun altitude
Rises 22:32:28 0° 189° (S) 3,600 9.7 46.4°
Reaches altitude 10° 22:35:08 10° 184° (S) 2,649 9.1 45.9°
Maximum altitude 22:41:02 47° 112° (ESE) 1,199 7.2 44.8°
Drops below altitude 10° 22:46:40 10° 41° (NE) 2,526 8.4 43.7°
Sets 22:49:09 0° 35° (NE) 3,418 9.0 43.2°
